This demonstration page uses our WeatherBlox Daily Observations layout. Learn more.

Left ArrowRight Arrow

34.16533, -84.80231

Hourly Observations for April 2, 2016

Temp ( °F °C ) Dew Point ( °F °C ) Humidity (%) Winds ( mph kmh ) Pressure ( in mb ) Visibility ( mi km ) Precip ( " mm )
12:53 am 00:53 Cloudy 57 13.9 56 13.3 96 96 Calm 29.80 1009 10 16 0.00 0.03
1:53 am 01:53 Mostly Cloudy 56 13.3 55 12.8 97 97 Calm 29.78 1009 10 16 0.00 0.00
2:53 am 02:53 Mostly Cloudy 56 13.3 54 12.2 93 93 Calm 29.79 1009 10 16 0.00 0.00
3:53 am 03:53 Mostly Clear 53 11.7 52 11.1 96 96 Calm 29.78 1009 10 16 0.00 0.00
4:53 am 04:53 Mostly Cloudy 51 10.6 50 10 96 96 Calm 29.80 1009 10 16 0.00 0.00
5:53 am 05:53 Clear 50 10 48 8.9 93 93 Calm 29.81 1010 10 16 0.00 0.00
6:53 am 06:53 Clear 48 8.9 44 6.7 86 86 Calm 29.83 1010 10 16 0.00 0.00
7:53 am 07:53 Sunny 47 8.3 43 6.1 86 86 Calm 29.84 1011 10 16 0.00 0.00
8:53 am 08:53 Sunny 52 11.1 42 5.6 69 69 Calm 29.86 1011 10 16 0.00 0.00
9:53 am 09:53 Sunny 56 13.3 40 4.4 55 55 NNW 7 11 29.87 1012 10 16 0.00 0.00
10:53 am 10:53 Sunny 58 14.4 36 2.2 44 44 Calm 29.89 1012 10 16 0.00 0.00
11:53 am 11:53 Sunny 59 15 34 1.1 39 39 NW 6 9 29.90 1012 10 16 0.00 0.00
12:53 pm 12:53 Mostly Sunny 61 16.1 33 0.6 35 35 VRB 5 7 29.90 1013 10 16 0.00 0.00
1:53 pm 13:53 Sunny 61 16.1 34 1.1 36 36 VRB 7 11 29.89 1012 10 16 0.00 0.00
2:53 pm 14:53 Mostly Sunny 63 17.2 34 1.1 34 34 undefined N/A 29.88 1012 10 16 0.00 0.00
3:53 pm 15:53 Sunny 63 17.2 34 1.1 34 34 NNW 8 13 29.88 1012 10 16 0.00 0.00
4:53 pm 16:53 Sunny 63 17.2 34 1.1 34 34 VRB 5 7 29.87 1012 10 16 0.00 0.00
5:53 pm 17:53 Sunny 62 16.7 34 1.1 35 35 VRB 3 6 29.88 1012 10 16 0.00 0.00
6:53 pm 18:53 Sunny 60 15.6 33 0.6 36 36 VRB 5 7 29.88 1012 10 16 0.00 0.00
7:53 pm 19:53 Sunny 57 13.9 35 1.7 44 44 VRB 3 6 29.90 1013 10 16 0.00 0.00
8:53 pm 20:53 Clear 54 12.2 34 1.1 47 47 Calm 29.94 1014 10 16 0.00 0.00
9:53 pm 21:53 Clear 53 11.7 34 1.1 48 48 Calm 29.96 1015 10 16 0.00 0.00
10:53 pm 22:53 Clear 53 11.7 34 1.1 48 48 VRB 3 6 29.97 1015 10 16 0.00 0.00
11:53 pm 23:53 Clear 51 10.6 34 1.1 52 52 Calm 29.97 1015 10 16 0.00 0.00

Powered by AerisWeather